Regional Weather Roundup
Issued by NWS

Home | Current Version | Previous Version | Graphics & Text | Print | Product List | Glossary On
Versions: 1 2 3 4 5 6 7 8 9 10 11 12 13 14 15 16 17 18 19 20 21 22 23 24 25 26 27 28 29 30 31 32 33 34 35 36 37 38 39 40 41 42 43 44 45 46 47 48 49 50
000
ASUS43 KLMK 241402
RWRKY
KENTUCKY REGIONAL WEATHER ROUNDUP
NATIONAL WEATHER SERVICE LOUISVILLE KY
900 AM EST FRI FEB 24 2017

NOTE "FAIR" INDICATES FEW OR NO CLOUDS BELOW 12,000 FEET
WITH NO SIGNIFICANT WEATHER AND/OR OBSTRUCTIONS TO VISIBILITY.

KYZ001>023-026-027-061>063-070>075-241500-
WESTERN AND SOUTH CENTRAL KENTUCKY

CITY           SKY/WX    TMP DP  RH WIND       PRES   REMARKS
PADUCAH        MOSUNNY   65  55  70 S10G23    29.61R
HENDERSON      CLOUDY    64  54  68 S17G25    29.61S
OWENSBORO      SUNNY     65  58  78 S14G21    29.65R
HOPKINSVILLE   SUNNY     66  57  72 S16G22    29.70R
BOWLING GREEN  SUNNY     66  57  72 S14       29.74R
GLASGOW        NOT AVBL
$$

KYZ024-025-028>034-038-045-046-053-241500-
NORTH CENTRAL KENTUCKY

CITY           SKY/WX    TMP DP  RH WIND       PRES   REMARKS
LOUISVILLE/SDF PTSUNNY   66  54  65 S13       29.70R
LOUISVILLE/LOU MOSUNNY   65  55  70 S13G20    29.70R
FORT KNOX      MOSUNNY   63  56  77 S12       29.69R
$$

KYZ035>037-039>044-047>052-055>060-089>105-241500-
NORTHEAST KENTUCKY

CITY           SKY/WX    TMP DP  RH WIND       PRES   REMARKS
LEXINGTON      MOSUNNY   63  51  65 S15G22    29.76R
COVINGTON      MOSUNNY   64  54  69 S18G25    29.70S
FRANKFORT      MOSUNNY   63  51  65 S10       29.72S
$$

KYZ054-064>069-076>088-106>120-241500-
SOUTHEAST KENTUCKY

CITY           SKY/WX    TMP DP  RH WIND       PRES   REMARKS
JACKSON        SUNNY     62  50  64 S3        29.83R
LONDON         SUNNY     64  48  56 S8        29.82R
SOMERSET       SUNNY     63  50  63 S10G16    29.83R
MIDDLESBORO    SUNNY     61  51  70 CALM      29.86S
MONTICELLO     MOSUNNY   66  52  60 S12G17    29.82R
$$




USA.gov is the U.S. government's official web portal to all federal, state and local government web resources and services.